Regional Weather Roundup
Issued by NWS

Home | Current Version | Previous Version | Graphics & Text | Print | Product List | Glossary On
Versions: 1 2 3 4 5 6 7 8 9 10 11 12 13 14 15 16 17 18 19 20 21 22 23 24 25 26 27 28 29 30 31 32 33 34 35 36 37 38 39 40 41 42 43 44 45 46 47 48 49 50
000
ASUS43 KMKX 271421
RWRWI

WISCONSIN REGIONAL WEATHER ROUNDUP
NATIONAL WEATHER SERVICE MILWAUKEE/SULLIVAN WI
800 AM CST MON FEB 27 2017

NOTE: "FAIR" INDICATES FEW OR NO CLOUDS BELOW 12,000 FEET WITH NO
SIGNIFICANT WEATHER AND/OR OBSTRUCTIONS TO VISIBILITY.

WIZ001-002-006>008-014>016-023>028-271500-
NORTHWEST WISCONSIN

CITY           SKY/WX    TMP DP  RH WIND       PRES   REMARKS
SUPERIOR ARPT  FLURRIES  19  13  77 CALM      29.99R
ASHLAND        LGT SNOW  20  13  74 CALM      30.00R
HAYWARD        CLOUDY    23  16  74 SE3       29.96S
SIREN          CLOUDY    25  20  82 SE5       29.95S WCI  19
CUMBERLAND     PTSUNNY   27  21  80 S8        29.96S WCI  18
RICE LAKE      MOSUNNY   26  22  84 S8        29.99R WCI  17
CHETEK         SUNNY     23  19  87 CALM      29.99R
LADYSMITH      SUNNY     24  21  86 S7        30.00R WCI  16
EAU CLAIRE     SUNNY     22  18  85 S3        30.00R
MENOMONIE      SUNNY     19  18  96 E3        30.01R FOG
NEW RICHMOND   SUNNY     25  19  77 S12       29.96S WCI  15
OSCEOLA        SUNNY     26  21  82 S7        29.99R WCI  19
$$

WIZ003>005-009-010-017-018-271500-
NORTH CENTRAL WISCONSIN

CITY           SKY/WX    TMP DP  RH WIND       PRES   REMARKS
MANITOWISH WTR LGT SNOW  17  15  95 SE6       29.97S WCI   8
ARBOR VITAE    CLOUDY    19  13  77 SE3         N/A
WOODRUFF       CLOUDY    19  13  77 SE3         N/A
RHINELANDER    PTSUNNY    1  32 100 S7        30.00R WCI -12
EAGLE RIVER    CLOUDY    17   9  70 S5        29.99S WCI  10
LAND O LAKES   LGT SNOW  11   9  88 CALM      30.00S
PHILLIPS       CLOUDY    21  14  73 SE6       29.96S WCI  13
TOMAHAWK       CLOUDY    21  16  79 CALM      30.00S
MEDFORD        PTSUNNY   21  19  90 S10       29.99R WCI  10
MERRILL        NOT AVBL
$$

WIZ029-030-035-036-043>047-271500-
CENTRAL WISCONSIN

CITY           SKY/WX    TMP DP  RH WIND       PRES   REMARKS
WAUSAU         PTSUNNY   23  20  88 SE6       30.03R WCI  16
MOSINEE        PTSUNNY   23  23 100 SE8       30.04S WCI  14
MARSHFIELD     SUNNY     21  19  92 S9        30.02R WCI  11
STEVENS POINT  SUNNY     23  21  90 S3        30.06S
WAUPACA        SUNNY     23  21  91 CALM      30.10R FOG
WAUTOMA        NOT AVBL
WISC RAPIDS    SUNNY     24  22  91 S6        30.07R WCI  17
CAMP DOUGLAS   SUNNY     23  21  93 SE6       30.06S WCI  16
$$

WIZ011>013-019>022-031-037>040-048>050-271500-
NORTHEAST WISCONSIN

CITY           SKY/WX    TMP DP  RH WIND       PRES   REMARKS
ANTIGO         PTSUNNY   19  12  74 S9        30.03R WCI   8
SHAWANO        MOSUNNY   28  18  67 CALM      30.10S
OCONTO         MOSUNNY   21  14  73 SE3       30.12R
STURGEON BAY   MOSUNNY   26  16  65 SE9       30.11S WCI  17
GREEN BAY      PTSUNNY   25  21  85 S7        30.11S WCI  17
MANITOWOC      MOSUNNY   26  23  88 CALM      30.13R
APPLETON       MOSUNNY   21  21 100 VRB5      30.08R WCI  15
CLINTONVILLE   SUNNY     23  18  80 CALM      30.09S
OSHKOSH        SUNNY     23  20  88 S6        30.10R WCI  16
$$

WIZ032>034-041-042-053>061-271500-
SOUTHWEST WISCONSIN

CITY           SKY/WX    TMP DP  RH WIND       PRES   REMARKS
LA CROSSE      SUNNY     27  22  81 SE5       30.06R WCI  22
SPARTA         SUNNY     17  16  93 CALM      30.07R
VIROQUA        SUNNY     28  24  86 SE8       30.04R WCI  20
BOSCOBEL       SUNNY     24  22  91 CALM      30.09S FOG
PRAIRIE DU CHI SUNNY     25  23  90 CALM      30.07S
PLATTEVILLE    CLOUDY    29  27  93 E7        30.07F WCI  22
$$

WIZ056-057-062-063-064-067-068-271500-
SOUTH CENTRAL WISCONSIN

CITY           SKY/WX    TMP DP  RH WIND       PRES   REMARKS
REEDSBURG      SUNNY     25  23  90 CALM      30.07F
BARABOO/DELLS  SUNNY     27  22  84 S8        30.07F WCI  18
LONE ROCK      SUNNY     26  23  88 E5        30.10S WCI  20
MINERAL POINT  SUNNY     30  28  93 SE6       30.07S WCI  24
MADISON        MOSUNNY   27  24  89 S3        30.10R
MIDDLETON      SUNNY     28  26  91 CALM      30.10S
WATERTOWN      SUNNY     28  27  96 CALM      30.12R
MONROE         SUNNY     32  27  80 SE5       30.09S WCI  27
JANESVILLE     MOSUNNY   28  27  93 CALM      30.11S
$$

WIZ051-052-058>065-066-070>072-271500-
SOUTHEAST WISCONSIN

CITY           SKY/WX    TMP DP  RH WIND       PRES   REMARKS
MILWAUKEE      MOSUNNY   32  25  75 CALM      30.14R
WAUKESHA       SUNNY     27  25  93 CALM      30.14R
MILWAUKEE/TIMM SUNNY     27  21  80 S5        30.14R WCI  21
RACINE         SUNNY     32  28  85 CALM      30.16R
KENOSHA        SUNNY     32  30  92 CALM      30.14R
FOND DU LAC    SUNNY     27  20  75 S6        30.11R WCI  20
SHEBOYGAN      SUNNY     23  20  88 S5        30.13R WCI  17
WEST BEND      SUNNY     28  28 100 CALM      30.12R
JUNEAU         SUNNY     28  24  84 SE5       30.12R WCI  23
$$

LSZ147-162-271500-
LAKE SUPERIOR

STATION/POSITION TIME  TEMP    WIND        PRES    WAVE
                       AIR SEA DIR/SP/G            HT/PER
                 (UTC) (F)     (DEG/KT/KT) (MB)    (FT/S)
DEVILS ISLAND    1400   23     170/  8/ 12 1016.9F
PORT WING        1330   21      CALM  /  4 1015.6S
SAXON HARBOR     1340   22     190/  4/  7 1015.9R
$$

LMZ867-665-643>646-271500-
LAKE MICHIGAN

STATION/POSITION TIME  TEMP    WIND        PRES    WAVE
                       AIR SEA DIR/SP/G            HT/PER
                 (UTC) (F)     (DEG/KT/KT) (MB)    (FT/S)
CHAMBERS ISLAND  1340   27     110/  3/  4 1019.3R
NORTHPORT PIER   1340   26     150/  1/  2 1019.6S
SISTER BAY       1335             CALM       N/A
KEWAUNEE LAKESHO 1400   33     130/  8/ 11 1019.7
SHEBOYGAN LAKESH 1400   31     200/  6/  7 1021.0R
PORT WASHINGTON  1330   31     240/  2/  3 1021.3S
MILWAUKEE LAKESH 1400   33     190/  3/  4   N/A
KENOSHA   LAKESH 1400   34        CALM     1021.0
$$

TC  - TEMPERATURE IN CELSIUS
VSB - VISIBILITY IN STATUTE MILES
WCI - WIND CHILL INDEX
HX  - HEAT INDEX




USA.gov is the U.S. government's official web portal to all federal, state and local government web resources and services.